Shreveport, LA

4:52 AM CDT on March 26, 2017 (GMT -0500)
Shreveport Regional

Weather History for KSHV - May, 2013

Change the Weather History Date:

Wednesday, May 1, 2013

  Actual Average Record
Temperature  
Mean Temperature 71 °F 69 °F  
Max Temperature 80 °F 80 °F 95 °F (1887)
Min Temperature 62 °F 58 °F 41 °F (2014)
Degree Days  
Heating Degree Days 0 1  
Month to date heating degree days 0 1  
Since 1 July heating degree days 2043 2220  
Cooling Degree Days 6 5  
Month to date cooling degree days 6 5  
Year to date cooling degree days 125 140  
Growing Degree Days 21 (Base 50)    
Moisture  
Dew Point 64 °F    
Average Humidity 76    
Maximum Humidity 93    
Minimum Humidity 58    
Precipitation  
Precipitation 0.05 in 0.16 in 2.40 in (1956)
Month to date precipitation 0.05 0.16  
Year to date precipitation 14.25 17.44  
Snow  
Snow 0.00 in - - ()
Month to date snowfall 0.0  
Since 1 July snowfall 0.1  
Snow Depth 0.00 in    
Sea Level Pressure  
Sea Level Pressure 29.89 in    
Wind  
Wind Speed 8 mph (ENE)    
Max Wind Speed 17 mph    
Max Gust Speed 26 mph    
Visibility 10 miles    
Events Rain    
T = Trace of Precipitation, MM = Missing Value Source: NWS Daily Summary

Daily Weather History Graph

Daily Weather History Graph

Search for Another Location

Airport or City:

Trip Planner

Search our weather history database for the weather conditions in past years. The results will help you decide how hot, cold, wet, or windy it might be!

Date:

Astronomy

May. 01, 2013 Rise Set
Actual Time 6:28 AM CDT 7:56 PM CDT
Civil Twilight 6:02 AM CDT 8:22 PM CDT
Nautical Twilight 5:31 AM CDT 8:54 PM CDT
Astronomical Twilight 4:58 AM CDT 9:27 PM CDT
Moon 1:05 AM CDT (5/1) 12:07 PM CDT (5/1)
Length of Visible Light 14h 20m
Length of Day
13h 28m
Waning Gibbous, 59% of the Moon is Illuminated
May 1
Waning Gibbous
May 2
Last Quarter
May 9
New
May 17
First Quarter
May 24
Full

Hourly Weather History & Observations

Time (CDT) Temp. Dew Point Humidity Pressure Visibility Wind Dir Wind Speed Gust Speed Precip Events Conditions
12:56 AM 66.9 °F 63.0 °F 87% 29.84 in 8.0 mi ESE 3.5 mph - N/A   Clear
1:56 AM 68.0 °F 63.0 °F 84% 29.83 in 9.0 mi ESE 4.6 mph - N/A   Clear
2:56 AM 66.9 °F 62.1 °F 84% 29.84 in 10.0 mi ESE 5.8 mph - N/A   Clear
3:56 AM 66.0 °F 62.1 °F 87% 29.85 in 10.0 mi SE 4.6 mph - N/A   Scattered Clouds
4:56 AM 64.0 °F 62.1 °F 93% 29.86 in 10.0 mi East 4.6 mph - N/A   Scattered Clouds
5:56 AM 63.0 °F 61.0 °F 93% 29.86 in 10.0 mi Calm Calm - N/A   Clear
6:56 AM 62.1 °F 61.0 °F 96% 29.87 in 10.0 mi Calm Calm - N/A   Clear
7:56 AM 66.9 °F 63.0 °F 87% 29.88 in 10.0 mi ESE 6.9 mph - N/A   Clear
8:21 AM 68.0 °F 62.6 °F 83% 29.90 in 10.0 mi East 8.1 mph - N/A   Mostly Cloudy
8:52 AM 69.8 °F 64.4 °F 83% 29.89 in 10.0 mi ESE 6.9 mph - N/A   Overcast
8:56 AM 70.0 °F 64.0 °F 81% 29.89 in 10.0 mi SE 8.1 mph - N/A   Overcast
9:56 AM 72.0 °F 63.0 °F 73% 29.89 in 10.0 mi East 8.1 mph - N/A   Mostly Cloudy
10:56 AM 75.0 °F 63.0 °F 66% 29.89 in 10.0 mi SE 9.2 mph - N/A   Scattered Clouds
11:13 AM 73.4 °F 62.6 °F 69% 29.90 in 10.0 mi ESE 6.9 mph - N/A   Mostly Cloudy
11:22 AM 75.2 °F 62.6 °F 65% 29.90 in 10.0 mi ESE 4.6 mph - N/A   Mostly Cloudy
11:54 AM 75.2 °F 62.6 °F 65% 29.90 in 10.0 mi ENE 5.8 mph - N/A   Overcast
11:56 AM 75.0 °F 62.1 °F 64% 29.89 in 10.0 mi NE 6.9 mph - N/A   Overcast
12:56 PM 73.0 °F 64.0 °F 73% 29.89 in 8.0 mi Calm Calm - 0.01 in Rain Light Rain
1:56 PM 75.0 °F 66.0 °F 73% 29.88 in 10.0 mi East 6.9 mph - 0.00 in   Mostly Cloudy
2:56 PM 79.0 °F 63.0 °F 58% 29.87 in 10.0 mi NE 10.4 mph - N/A   Mostly Cloudy
3:56 PM 77.0 °F 63.0 °F 62% 29.87 in 10.0 mi North 10.4 mph - N/A   Mostly Cloudy
4:06 PM 78.8 °F 64.4 °F 61% 29.88 in 10.0 mi NE 13.8 mph - N/A   Mostly Cloudy
4:56 PM 73.0 °F 64.0 °F 73% 29.87 in 10.0 mi NNE 12.7 mph - N/A   Mostly Cloudy
5:56 PM 71.1 °F 66.0 °F 84% 29.89 in 3.0 mi NNE 12.7 mph - 0.02 in Rain Light Rain
6:56 PM 69.1 °F 66.0 °F 90% 29.89 in 10.0 mi ENE 10.4 mph - 0.02 in Rain Light Rain
7:20 PM 69.8 °F 66.2 °F 88% 29.90 in 10.0 mi ENE 8.1 mph - 0.00 in Rain Light Rain
7:37 PM 69.8 °F 66.2 °F 88% 29.90 in 10.0 mi ENE 8.1 mph - 0.00 in   Mostly Cloudy
7:48 PM 69.8 °F 66.2 °F 88% 29.90 in 10.0 mi ENE 12.7 mph - 0.00 in   Mostly Cloudy
7:56 PM 69.1 °F 64.9 °F 87% 29.90 in 10.0 mi ENE 13.8 mph - 0.00 in   Mostly Cloudy
8:28 PM 69.8 °F 64.4 °F 83% 29.91 in 10.0 mi NE 6.9 mph - N/A   Overcast
8:56 PM 69.1 °F 64.9 °F 87% 29.91 in 10.0 mi ENE 9.2 mph 18.4 mph N/A   Overcast
9:56 PM 68.0 °F 64.9 °F 90% 29.93 in 10.0 mi ENE 10.4 mph - N/A   Overcast
10:04 PM 68.0 °F 64.4 °F 88% 29.94 in 10.0 mi ENE 10.4 mph - N/A   Overcast
10:56 PM 66.9 °F 63.0 °F 87% 29.96 in 10.0 mi NE 12.7 mph - N/A   Overcast
11:56 PM 66.0 °F 63.0 °F 90% 29.94 in 7.0 mi ENE 15.0 mph - N/A   Overcast